SHT9K EGLL-EGPH

Flight info

Callsign SHT9K
Flight time N/A
Altitude 32000
Route ULTIB T420 TNT UN57 POL UN601 RIBEL DCT INPIP
Aircraft A320/M-SDE3FGHIRWY/LB1

Departure

Time N/A
Airport London Heathrow Airport (EGLL)

Arrival

Time 2026-04-26 15:43
Airport Edinburgh Airport (EGPH)
Time Latitude Longitude Altitude Speed Heading
2026-04-26 15:11 54.42093 -2.57141 32309 ft 418 kts 332°
2026-04-26 15:12 54.47453 -2.60925 32271 ft 415 kts 331°
2026-04-26 15:12 54.50103 -2.62795 32013 ft 407 kts 331°
2026-04-26 15:12 54.52710 -2.64637 31757 ft 403 kts 331°
2026-04-26 15:13 54.55298 -2.66466 31492 ft 401 kts 331°
2026-04-26 15:13 54.57874 -2.68293 31227 ft 398 kts 331°
2026-04-26 15:13 54.60423 -2.70099 30801 ft 395 kts 332°
2026-04-26 15:13 54.62964 -2.71904 30359 ft 393 kts 332°
2026-04-26 15:14 54.65490 -2.73706 29881 ft 390 kts 332°
2026-04-26 15:14 54.67959 -2.75476 29477 ft 387 kts 332°
2026-04-26 15:14 54.70438 -2.77252 29045 ft 384 kts 332°
2026-04-26 15:14 54.72898 -2.79008 28654 ft 382 kts 332°
2026-04-26 15:15 54.75349 -2.80759 28231 ft 379 kts 332°
2026-04-26 15:15 54.77782 -2.82502 27824 ft 377 kts 332°
2026-04-26 15:15 54.80192 -2.84237 27444 ft 374 kts 332°
2026-04-26 15:15 54.82586 -2.85961 27068 ft 371 kts 332°
2026-04-26 15:16 54.84957 -2.87666 26692 ft 368 kts 332°
2026-04-26 15:16 54.87312 -2.89354 26321 ft 365 kts 333°
2026-04-26 15:16 54.89657 -2.91040 25838 ft 367 kts 333°
2026-04-26 15:16 54.92030 -2.92755 25309 ft 370 kts 333°
2026-04-26 15:17 54.94410 -2.94477 24797 ft 371 kts 333°
2026-04-26 15:17 54.95990 -2.95620 24447 ft 372 kts 334°
2026-04-26 15:17 54.99198 -2.97943 23734 ft 374 kts 334°
2026-04-26 15:17 55.01601 -2.99691 23165 ft 374 kts 334°
2026-04-26 15:18 55.03993 -3.01440 22647 ft 372 kts 334°
2026-04-26 15:18 55.06374 -3.03176 22182 ft 369 kts 334°
2026-04-26 15:18 55.08705 -3.04870 22043 ft 357 kts 334°
2026-04-26 15:18 55.10967 -3.06512 21809 ft 348 kts 334°
2026-04-26 15:19 55.13196 -3.08135 21432 ft 345 kts 334°
2026-04-26 15:19 55.15399 -3.09749 21031 ft 342 kts 334°
2026-04-26 15:19 55.17588 -3.11357 20620 ft 340 kts 334°
2026-04-26 15:19 55.19731 -3.12932 20230 ft 338 kts 334°
2026-04-26 15:20 55.21888 -3.14518 19836 ft 335 kts 334°
2026-04-26 15:20 55.24039 -3.16099 19459 ft 334 kts 333°
2026-04-26 15:20 55.26171 -3.17663 19094 ft 331 kts 333°
2026-04-26 15:20 55.28292 -3.19229 18717 ft 330 kts 333°
2026-04-26 15:21 55.30369 -3.20895 18307 ft 325 kts 327°
2026-04-26 15:21 55.32315 -3.22894 17892 ft 323 kts 326°
2026-04-26 15:21 55.34253 -3.24889 17486 ft 322 kts 326°
2026-04-26 15:21 55.36179 -3.26867 17086 ft 320 kts 326°
2026-04-26 15:22 55.38098 -3.28837 16701 ft 319 kts 326°
2026-04-26 15:22 55.40009 -3.30800 16328 ft 317 kts 326°
2026-04-26 15:22 55.41909 -3.32754 15963 ft 316 kts 326°
2026-04-26 15:22 55.43805 -3.34707 15584 ft 315 kts 326°
2026-04-26 15:23 55.44544 -3.35468 15444 ft 314 kts 326°
2026-04-26 15:23 55.46158 -3.37130 15160 ft 313 kts 326°
2026-04-26 15:23 55.48030 -3.39061 14811 ft 311 kts 326°
2026-04-26 15:23 55.49895 -3.40988 14478 ft 310 kts 326°
2026-04-26 15:24 55.51726 -3.42884 14149 ft 308 kts 326°
2026-04-26 15:24 55.53575 -3.44803 13779 ft 307 kts 326°
2026-04-26 15:24 55.55410 -3.46711 13389 ft 306 kts 326°
2026-04-26 15:24 55.57235 -3.48609 12989 ft 304 kts 326°
2026-04-26 15:25 55.59075 -3.50528 12269 ft 313 kts 326°
2026-04-26 15:25 55.60337 -3.51850 11764 ft 321 kts 326°
2026-04-26 15:25 55.62907 -3.54533 11207 ft 319 kts 326°
2026-04-26 15:25 55.64737 -3.56700 10809 ft 313 kts 315°
2026-04-26 15:26 55.66437 -3.59091 10464 ft 314 kts 328°
2026-04-26 15:26 55.68532 -3.59954 10420 ft 310 kts
2026-04-26 15:26 55.70540 -3.58822 10416 ft 302 kts 33°
2026-04-26 15:26 55.71875 -3.56110 10395 ft 289 kts 67°
2026-04-26 15:27 55.72471 -3.52821 10277 ft 279 kts 79°
2026-04-26 15:27 55.72823 -3.49496 10236 ft 267 kts 85°
2026-04-26 15:27 55.72887 -3.46290 10242 ft 255 kts 99°
2026-04-26 15:27 55.72489 -3.43276 10169 ft 247 kts 118°
2026-04-26 15:28 55.71602 -3.40730 10092 ft 240 kts 138°
2026-04-26 15:28 55.70340 -3.38882 10021 ft 234 kts 153°
2026-04-26 15:28 55.68974 -3.37313 9941 ft 234 kts 152°
2026-04-26 15:28 55.67612 -3.35727 9847 ft 234 kts 152°
2026-04-26 15:29 55.66268 -3.34157 9761 ft 235 kts 152°
2026-04-26 15:29 55.64897 -3.32553 9678 ft 236 kts 152°
2026-04-26 15:29 55.62106 -3.29591 9522 ft 230 kts 165°
2026-04-26 15:30 55.59027 -3.29050 9366 ft 220 kts 194°
2026-04-26 15:30 55.57583 -3.29864 9288 ft 217 kts 208°
2026-04-26 15:30 55.56321 -3.31296 9211 ft 215 kts 223°
2026-04-26 15:31 55.55327 -3.33251 9134 ft 214 kts 237°
2026-04-26 15:31 55.54340 -3.38171 8987 ft 217 kts 264°
2026-04-26 15:31 55.54416 -3.40828 8913 ft 219 kts 278°
2026-04-26 15:32 55.55429 -3.44960 8780 ft 226 kts 303°
2026-04-26 15:32 55.56952 -3.47555 8673 ft 230 kts 319°
2026-04-26 15:32 55.58215 -3.49237 8540 ft 232 kts 319°
2026-04-26 15:33 55.59525 -3.50980 8165 ft 235 kts 319°
2026-04-26 15:33 55.60824 -3.52712 7966 ft 231 kts 319°
2026-04-26 15:33 55.62081 -3.54384 7841 ft 228 kts 319°
2026-04-26 15:33 55.63346 -3.56075 7708 ft 228 kts 319°
2026-04-26 15:34 55.64608 -3.57766 7583 ft 227 kts 319°
2026-04-26 15:34 55.65864 -3.59459 7458 ft 227 kts 319°
2026-04-26 15:34 55.67118 -3.61144 7335 ft 226 kts 319°
2026-04-26 15:34 55.68371 -3.62823 7212 ft 226 kts 319°
2026-04-26 15:35 55.69616 -3.64514 7087 ft 225 kts 318°
2026-04-26 15:35 55.70831 -3.66255 6964 ft 224 kts 317°
2026-04-26 15:35 55.72033 -3.68013 6842 ft 224 kts 317°
2026-04-26 15:35 55.73235 -3.69774 6719 ft 224 kts 317°
2026-04-26 15:36 55.74434 -3.71532 6487 ft 223 kts 317°
2026-04-26 15:36 55.75622 -3.73292 6199 ft 222 kts 315°
2026-04-26 15:36 55.76745 -3.75167 5857 ft 223 kts 315°
2026-04-26 15:36 55.78120 -3.76617 5332 ft 238 kts 341°
2026-04-26 15:37 55.79755 -3.76879 5133 ft 237 kts
2026-04-26 15:37 55.81285 -3.75923 4942 ft 233 kts 32°
2026-04-26 15:37 55.82447 -3.73956 4678 ft 231 kts 57°
2026-04-26 15:37 55.83292 -3.71523 4379 ft 231 kts 59°
2026-04-26 15:38 55.84127 -3.69082 4066 ft 229 kts 59°
2026-04-26 15:38 55.84939 -3.66715 3760 ft 219 kts 59°
2026-04-26 15:38 55.85717 -3.64449 3473 ft 211 kts 59°
2026-04-26 15:38 55.86475 -3.62241 3188 ft 207 kts 59°
2026-04-26 15:39 55.87213 -3.60086 2930 ft 199 kts 59°
2026-04-26 15:39 55.87912 -3.58045 2641 ft 188 kts 58°
2026-04-26 15:39 55.88574 -3.56109 2402 ft 177 kts 58°
2026-04-26 15:39 55.88981 -3.54918 2263 ft 164 kts 58°
2026-04-26 15:40 55.89739 -3.52704 1959 ft 152 kts 58°
2026-04-26 15:40 55.90282 -3.51112 1759 ft 149 kts 58°
2026-04-26 15:40 55.90813 -3.49557 1545 ft 148 kts 58°
2026-04-26 15:40 55.91344 -3.48000 1363 ft 146 kts 58°
2026-04-26 15:41 55.91872 -3.46450 1157 ft 145 kts 58°
2026-04-26 15:41 55.92396 -3.44912 956 ft 144 kts 58°
2026-04-26 15:41 55.92910 -3.43401 765 ft 140 kts 58°
2026-04-26 15:41 55.93407 -3.41934 580 ft 137 kts 58°
2026-04-26 15:42 55.93893 -3.40497 356 ft 134 kts 57°
2026-04-26 15:42 55.94378 -3.39094 201 ft 133 kts 57°
2026-04-26 15:42 55.94824 -3.37774 114 ft 111 kts 59°
2026-04-26 15:42 55.95144 -3.36830 114 ft 71 kts 58°
2026-04-26 15:43 55.95258 -3.36440 111 ft 16 kts 101°
2026-04-26 15:43 55.95220 -3.36379 114 ft 8 kts 147°
2026-04-26 15:43 55.95160 -3.36315 114 ft 8 kts 149°
2026-04-26 15:44 55.95109 -3.36356 114 ft 10 kts 234°
2026-04-26 15:44 55.94996 -3.36450 115 ft 7 kts 239°
2026-04-26 15:44 55.94957 -3.36472 114 ft 7 kts 155°
2026-04-26 15:45 55.94921 -3.36430 112 ft 0 kts 148°